ギブス彗星

248P/Gibbs (2011)

English version
Home page
Updated on September 3, 2011

---------------------------------------------------------------------

・ プロフィール

符号 248P/2010 W1
発見日 2010年11月27日
発見光度 18.3等
発見者 A. R. Gibbs (Catalina Sky Survey)

・ 軌道要素

Epoch 2011 Feb. 8.0 TT = JDT 2455600.5
T 2011 Feb. 8.73422 TT                                  MPC
q   2.1469224            (2000.0)            P               Q
n   0.06753603     Peri.  209.91619     +0.53579257     -0.84276413
a   5.9718979      Node   207.78349     +0.79502197     +0.52417361
e   0.6404958      Incl.    6.37039     +0.28437017     +0.12243630
P  14.6
From 115 observations 1996 Sept. 14-2011 Jan. 7, mean residual 0".6.

・ 光度変化

        m1 = 14.0 + 5 logΔ + 10.0 log r

---------------------------------------------------------------------

軌道要素はM.P.E.C. 2011-A67に掲載されたものです。
光度グラフはComet for Windowsで作成したものです。

---------------------------------------------------------------------

Copyright(C) Seiichi Yoshida (comet@aerith.net). All rights reserved.